When you browse on this site, cookies collect data to enhance your experience and personalize the content and advertising you see.
Visit our Privacy Policy to learn more. By continuing to use the site, you agree to this use of cookies and data.
  • en Suisse
  • Liste des pays
  • À 7 jours
  • Température de l'eau
  • Carte satellitaire
  • Carte météo
  • Widgets météo
  • user-avatar
    Se connecter

    Météo par heure à Maceio

    Ce jour, 22 Janvier, Mardi

    Heure Température Précipitation Vent Pression Humidité
    00:00 +26°C° 0 mm 3 m/s 761 mmHg 81%
    01:00 +26°C° 0 mm 3 m/s 761 mmHg 82%
    02:00 +26°C° 0.1 mm 2 m/s 760 mmHg 82%
    03:00 +26°C° 0.1 mm 2 m/s 760 mmHg 83%
    04:00 +26°C° 0.1 mm 2 m/s 760 mmHg 83%
    05:00 +26°C° 0.1 mm 2 m/s 760 mmHg 83%
    06:00 +26°C° 0.1 mm 2 m/s 760 mmHg 82%
    07:00 +27°C° 0.1 mm 2 m/s 760 mmHg 81%
    08:00 +28°C° 0.1 mm 2 m/s 760 mmHg 73%
    09:00 +30°C° 0.1 mm 3 m/s 760 mmHg 65%
    10:00 +33°C° 0.1 mm 3 m/s 761 mmHg 56%
    11:00 +34°C° 0 mm 4 m/s 760 mmHg 54%
    12:00 +35°C° 0 mm 4 m/s 760 mmHg 52%
    13:00 +35°C° 0 mm 5 m/s 760 mmHg 50%
    14:00 +35°C° 0.1 mm 5 m/s 759 mmHg 52%
    15:00 +34°C° 0.1 mm 5 m/s 759 mmHg 55%
    16:00 +34°C° 0.1 mm 5 m/s 758 mmHg 58%
    17:00 +32°C° 0.2 mm 5 m/s 759 mmHg 64%
    18:00 +30°C° 0.2 mm 4 m/s 759 mmHg 71%
    19:00 +28°C° 0.2 mm 4 m/s 759 mmHg 78%
    20:00 +28°C° 0.6 mm 4 m/s 759 mmHg 81%
    21:00 +27°C° 0.6 mm 3 m/s 760 mmHg 83%
    22:00 +27°C° 0.6 mm 3 m/s 760 mmHg 86%
    23:00 +27°C° 1 mm 3 m/s 760 mmHg 86%

    Demain, 23 Janvier, Mercredi

    Heure Température Précipitation Vent Pression Humidité
    00:00 +27°C° 1 mm 2 m/s 760 mmHg 86%
    01:00 +27°C° 1 mm 2 m/s 760 mmHg 86%
    02:00 +27°C° 1 mm 2 m/s 759 mmHg 87%
    03:00 +26°C° 1 mm 1 m/s 759 mmHg 88%
    04:00 +26°C° 1 mm 1 m/s 758 mmHg 89%
    05:00 +26°C° 0.6 mm 1 m/s 759 mmHg 88%
    06:00 +26°C° 0.6 mm 2 m/s 759 mmHg 88%
    07:00 +26°C° 0.6 mm 2 m/s 759 mmHg 88%
    08:00 +28°C° 0.3 mm 2 m/s 760 mmHg 80%
    09:00 +29°C° 0.3 mm 1 m/s 760 mmHg 72%
    10:00 +31°C° 0.3 mm 1 m/s 760 mmHg 64%
    11:00 +32°C° 0 mm 2 m/s 760 mmHg 58%
    12:00 +35°C° 0 mm 4 m/s 760 mmHg 52%
    13:00 +36°C° 0 mm 5 m/s 760 mmHg 46%
    14:00 +36°C° 0 mm 5 m/s 759 mmHg 48%
    15:00 +35°C° 0 mm 5 m/s 759 mmHg 50%
    16:00 +35°C° 0 mm 6 m/s 758 mmHg 52%
    17:00 +33°C° 0 mm 5 m/s 758 mmHg 59%
    18:00 +32°C° 0 mm 5 m/s 758 mmHg 65%
    19:00 +29°C° 0 mm 4 m/s 759 mmHg 71%
    20:00 +29°C° 0 mm 4 m/s 759 mmHg 74%
    21:00 +28°C° 0 mm 4 m/s 760 mmHg 77%
    22:00 +27°C° 0 mm 4 m/s 760 mmHg 80%
    23:00 +27°C° 0 mm 3 m/s 760 mmHg 81%

    Après-demain, 24 Janvier, Jeudi

    Heure Température Précipitation Vent Pression Humidité
    00:00 +27°C° 0 mm 3 m/s 760 mmHg 83%
    01:00 +26°C° 0 mm 3 m/s 759 mmHg 85%
    02:00 +26°C° 0 mm 3 m/s 759 mmHg 86%
    03:00 +26°C° 0 mm 3 m/s 758 mmHg 86%
    04:00 +26°C° 0 mm 2 m/s 758 mmHg 87%
    05:00 +26°C° 0 mm 2 m/s 758 mmHg 87%
    06:00 +26°C° 0 mm 2 m/s 759 mmHg 86%
    07:00 +26°C° 0 mm 2 m/s 759 mmHg 85%
    08:00 +28°C° 0 mm 3 m/s 759 mmHg 75%
    09:00 +30°C° 0 mm 3 m/s 760 mmHg 66%
    10:00 +33°C° 0 mm 4 m/s 760 mmHg 56%
    11:00 +34°C° 0 mm 4 m/s 760 mmHg 53%
    12:00 +35°C° 0 mm 4 m/s 759 mmHg 50%
    13:00 +36°C° 0 mm 5 m/s 759 mmHg 48%
    14:00 +35°C° 0 mm 5 m/s 758 mmHg 50%
    15:00 +35°C° 0 mm 5 m/s 758 mmHg 53%
    16:00 +34°C° 0 mm 5 m/s 757 mmHg 55%
    17:00 +33°C° 0 mm 5 m/s 757 mmHg 63%
    18:00 +30°C° 0 mm 5 m/s 758 mmHg 70%
    19:00 +29°C° 0 mm 4 m/s 758 mmHg 78%
    20:00 +28°C° 0.2 mm 4 m/s 759 mmHg 81%
    21:00 +28°C° 0.2 mm 3 m/s 759 mmHg 83%
    22:00 +27°C° 0.2 mm 3 m/s 760 mmHg 86%
    23:00 +27°C° 0.1 mm 3 m/s 760 mmHg 87%

    25 Janvier, Vendredi

    Heure Température Précipitation Vent Pression Humidité
    00:00 +27°C° 0.1 mm 3 m/s 759 mmHg 87%
    01:00 +27°C° 0.1 mm 2 m/s 759 mmHg 88%
    02:00 +26°C° 0.1 mm 2 m/s 758 mmHg 89%
    03:00 +26°C° 0.1 mm 2 m/s 758 mmHg 89%
    04:00 +26°C° 0.1 mm 2 m/s 758 mmHg 89%
    05:00 +26°C° 0.1 mm 2 m/s 758 mmHg 88%
    06:00 +27°C° 0.1 mm 2 m/s 758 mmHg 87%
    07:00 +27°C° 0.1 mm 2 m/s 759 mmHg 86%
    08:00 +28°C° 0.4 mm 3 m/s 759 mmHg 80%
    09:00 +29°C° 0.4 mm 3 m/s 759 mmHg 75%
    10:00 +30°C° 0.4 mm 4 m/s 760 mmHg 70%
    11:00 +32°C° 1 mm 4 m/s 759 mmHg 68%
    12:00 +32°C° 1 mm 4 m/s 759 mmHg 67%
    13:00 +33°C° 1 mm 4 m/s 759 mmHg 65%
    14:00 +33°C° 0.2 mm 5 m/s 758 mmHg 65%
    15:00 +33°C° 0.2 mm 5 m/s 758 mmHg 64%
    16:00 +33°C° 0.2 mm 5 m/s 757 mmHg 63%
    17:00 +32°C° 0 mm 5 m/s 757 mmHg 68%
    18:00 +30°C° 0 mm 4 m/s 758 mmHg 72%
    19:00 +29°C° 0 mm 4 m/s 758 mmHg 76%
    20:00 +28°C° 0 mm 4 m/s 759 mmHg 79%
    21:00 +28°C° 0 mm 3 m/s 759 mmHg 82%
    22:00 +27°C° 0 mm 3 m/s 760 mmHg 84%
    23:00 +27°C° 0 mm 3 m/s 759 mmHg 85%

    26 Janvier, Samedi

    Heure Température Précipitation Vent Pression Humidité
    00:00 +27°C° 0 mm 3 m/s 759 mmHg 86%
    01:00 +26°C° 0 mm 3 m/s 759 mmHg 87%
    02:00 +26°C° 0 mm 2 m/s 759 mmHg 88%
    03:00 +26°C° 0 mm 2 m/s 758 mmHg 88%
    04:00 +26°C° 0 mm 2 m/s 758 mmHg 89%
    05:00 +26°C° 0 mm 2 m/s 759 mmHg 88%
    06:00 +26°C° 0 mm 2 m/s 759 mmHg 87%
    07:00 +27°C° 0 mm 2 m/s 759 mmHg 86%
    08:00 +28°C° 0.1 mm 3 m/s 760 mmHg 78%
    09:00 +30°C° 0.1 mm 3 m/s 760 mmHg 69%
    10:00 +33°C° 0.1 mm 4 m/s 760 mmHg 60%
    11:00 +34°C° 0 mm 4 m/s 760 mmHg 58%
    12:00 +35°C° 0 mm 5 m/s 759 mmHg 55%
    13:00 +35°C° 0 mm 5 m/s 759 mmHg 53%
    14:00 +35°C° 0 mm 5 m/s 759 mmHg 54%
    15:00 +35°C° 0 mm 5 m/s 758 mmHg 55%
    16:00 +34°C° 0 mm 5 m/s 758 mmHg 57%
    17:00 +33°C° 0.3 mm 5 m/s 758 mmHg 65%
    18:00 +30°C° 0.3 mm 5 m/s 758 mmHg 73%
    19:00 +29°C° 0.3 mm 5 m/s 759 mmHg 81%
    20:00 +28°C° 0.6 mm 4 m/s 759 mmHg 83%
    21:00 +28°C° 0.6 mm 4 m/s 759 mmHg 86%
    22:00 +27°C° 0.6 mm 4 m/s 760 mmHg 89%
    23:00 +27°C° 1.7 mm 4 m/s 760 mmHg 89%

    27 Janvier, Dimanche

    Heure Température Précipitation Vent Pression Humidité
    00:00 +27°C° 1.7 mm 4 m/s 759 mmHg 90%
    01:00 +26°C° 1.7 mm 3 m/s 759 mmHg 90%
    02:00 +26°C° 1.1 mm 3 m/s 759 mmHg 90%
    03:00 +26°C° 1.1 mm 3 m/s 759 mmHg 90%
    04:00 +26°C° 1.1 mm 3 m/s 759 mmHg 90%
    05:00 +26°C° 0.5 mm 3 m/s 759 mmHg 90%
    06:00 +26°C° 0.5 mm 3 m/s 759 mmHg 89%
    07:00 +27°C° 0.5 mm 3 m/s 760 mmHg 89%
    08:00 +28°C° 0.3 mm 4 m/s 760 mmHg 83%
    09:00 +29°C° 0.3 mm 4 m/s 760 mmHg 78%
    10:00 +32°C° 0.3 mm 5 m/s 760 mmHg 72%
    11:00 +33°C° 0 mm 5 m/s 760 mmHg 66%
    12:00 +34°C° 0 mm 5 m/s 760 mmHg 59%
    13:00 +35°C° 0 mm 4 m/s 760 mmHg 52%
    14:00 +35°C° 0 mm 5 m/s 759 mmHg 52%
    15:00 +34°C° 0 mm 5 m/s 759 mmHg 52%
    16:00 +34°C° 0 mm 5 m/s 758 mmHg 52%
    17:00 +33°C° 0.2 mm 5 m/s 758 mmHg 60%
    18:00 +30°C° 0.2 mm 4 m/s 759 mmHg 68%
    19:00 +29°C° 0.2 mm 4 m/s 759 mmHg 76%
    20:00 +28°C° 1 mm 4 m/s 759 mmHg 80%
    21:00 +27°C° 1 mm 3 m/s 760 mmHg 85%
    22:00 +27°C° 1 mm 3 m/s 760 mmHg 89%
    23:00 +27°C° 1.7 mm 3 m/s 760 mmHg 90%
    Voir plus